START_TIME,STEP,MOV.,A46,t_acc.,A13,t_acc.,M47,t_acc.,A17,t_acc.,A28,t_acc.,M38,t_acc.
1986-01-26 00:00:26.840 ,4,0,,0,0.,4.8,0.,4.8,,0,0.,4.8,0.,4.8
1986-01-26 00:00:31.640 ,4,0,,0,0.,4.8,0.,4.8,,0,0.,4.8,0.,4.8
1986-01-26 00:00:36.440 ,4,0,,0,0.,4.8,0.,4.8,,0,0.,4.8,0.,4.8
1986-01-26 00:00:41.240 ,4,0,,0,1.,4.8,0.,4.8,,0,0.,4.8,0.,4.8
1986-01-26 00:00:46.040 ,4,0,,0,1.,4.8,0.,4.8,,0,0.,4.8,0.,4.8
1986-01-26 00:00:50.840 ,3,0,,0,0.,4.8,0.,4.8,,0,0.,4.8,0.,4.8
1986-01-26 00:00:55.640 ,3,0,,0,0.,4.8,0.,4.8,,0,0.,4.8,0.,4.8
1986-01-26 00:01:00.440 ,3,0,,0,1.,4.8,0.,4.8,,0,0.,4.8,0.,4.8
1986-01-26 00:01:05.240 ,3,0,,0,0.,4.8,0.,4.8,,0,0.,4.8,0.,4.8
1986-01-26 00:01:10.040 ,3,0,,0,0.,4.8,0.,4.8,,0,0.,4.8,0.,4.8
1986-01-26 00:01:14.840 ,3,0,,0,0.,4.8,0.,4.8,,0,0.,4.8,0.,4.8
1986-01-26 00:01:19.640 ,3,0,,0,0.,4.8,0.,4.8,,0,0.,4.8,0.,4.8
1986-01-26 00:01:24.440 ,3,0,,0,0.,4.8,0.,4.8,,0,0.,4.8,0.,4.8
1986-01-26 00:01:29.240 ,3,0,,0,0.,4.8,0.,4.8,,0,0.,4.8,0.,4.8
1986-01-26 00:01:34.040 ,3,0,,0,0.,4.8,0.,4.8,,0,0.,4.8,0.,4.8
1986-01-26 00:01:38.840 ,2,0,,0,0.,4.8,0.,4.8,,0,0.,4.8,0.,4.8
1986-01-26 00:01:43.640 ,2,0,,0,0.,4.8,0.,4.8,,0,0.,4.8,0.,4.8
1986-01-26 00:01:48.440 ,2,0,,0,0.,4.8,0.,4.8,,0,0.,4.8,0.,4.8
1986-01-26 00:01:53.240 ,2,0,,0,0.,4.8,0.,4.8,,0,0.,4.8,0.,4.8
1986-01-26 00:01:58.040 ,2,0,,0,0.,4.8,0.,4.8,,0,0.,4.8,0.,4.8
1986-01-26 00:02:02.840 ,2,0,,0,0.,4.8,0.,4.8,,0,0.,4.8,0.,4.8
1986-01-26 00:02:07.640 ,2,0,,0,0.,4.8,0.,4.8,,0,0.,4.8,0.,4.8
1986-01-26 00:02:12.440 ,2,0,,0,0.,4.8,0.,4.8,,0,0.,4.8,0.,4.8
1986-01-26 00:02:17.240 ,2,0,,0,1.,4.8,0.,4.8,,0,0.,4.8,0.,4.8
1986-01-26 00:02:22.040 ,2,0,,0,2.,4.8,0.,4.8,,0,0.,4.8,0.,4.8
1986-01-26 00:02:26.840 ,1,0,,0,0.,4.8,0.,4.8,,0,0.,4.8,0.,4.8
1986-01-26 00:02:31.640 ,1,0,,0,1.,4.8,0.,4.8,,0,0.,4.8,0.,4.8
1986-01-26 00:02:36.440 ,1,0,,0,0.,4.8,0.,4.8,,0,0.,4.8,0.,4.8
1986-01-26 00:02:41.240 ,1,0,,0,0.,4.8,0.,4.8,,0,0.,4.8,0.,4.8
1986-01-26 00:02:46.040 ,1,0,,0,0.,4.8,0.,4.8,,0,0.,4.8,0.,4.8
1986-01-26 00:02:50.840 ,1,0,,0,0.,4.8,0.,4.8,,0,0.,4.8,0.,4.8
1986-01-26 00:02:55.640 ,1,0,,0,0.,4.8,0.,4.8,,0,0.,4.8,0.,4.8
1986-01-26 00:03:00.440 ,1,0,,0,0.,4.8,0.,4.8,,0,0.,4.8,0.,4.8
1986-01-26 00:03:05.240 ,1,0,,0,0.,4.8,0.,4.8,,0,0.,4.8,0.,4.8
1986-01-26 00:03:10.040 ,1,0,,0,0.,4.8,0.,4.8,,0,0.,4.8,0.,4.8
1986-01-26 00:03:14.840 ,0,0,,0,0.,4.8,0.,4.8,,0,0.,4.8,0.,4.8
1986-01-26 00:03:19.640 ,0,0,,0,0.,4.8,0.,4.8,,0,0.,4.8,0.,4.8
1986-01-26 00:03:24.440 ,0,0,,0,0.,4.8,0.,4.8,,0,0.,4.8,0.,4.8
1986-01-26 00:03:29.240 ,0,0,,0,0.,4.8,0.,4.8,,0,0.,4.8,0.,4.8
1986-01-26 00:03:34.040 ,0,0,,0,0.,4.8,0.,4.8,,0,0.,4.8,0.,4.8
1986-01-26 00:03:38.840 ,0,0,,0,0.,4.8,0.,4.8,,0,0.,4.8,0.,4.8
1986-01-26 00:03:43.640 ,0,0,,0,0.,4.8,0.,4.8,,0,0.,4.8,0.,4.8
1986-01-26 00:03:48.440 ,0,0,,0,0.,4.8,0.,4.8,,0,0.,4.8,0.,4.8
1986-01-26 00:03:53.240 ,0,0,,0,0.,4.8,0.,4.8,,0,0.,4.8,0.,4.8
1986-01-26 00:03:58.040 ,0,0,,0,0.,4.8,0.,4.8,,0,0.,4.8,0.,4.8
1986-01-26 00:04:02.840 ,0,0,,0,0.,4.8,0.,4.8,,0,0.,4.8,0.,4.8
1986-01-26 00:04:07.640 ,0,0,,0,0.,4.8,0.,4.8,,0,0.,4.8,0.,4.8
1986-01-26 00:04:12.440 ,0,0,,0,0.,4.8,0.,4.8,,0,0.,4.8,0.,4.8
1986-01-26 00:04:17.240 ,0,0,,0,0.,4.8,0.,4.8,,0,0.,4.8,0.,4.8
1986-01-26 00:04:22.040 ,0,0,,0,0.,4.8,0.,4.8,,0,0.,4.8,0.,4.8
1986-01-26 00:04:26.840 ,0,0,,0,0.,4.8,0.,4.8,,0,0.,4.8,0.,4.8
1986-01-26 00:04:31.640 ,0,0,,0,0.,4.8,0.,4.8,,0,0.,4.8,0.,4.8
1986-01-26 00:04:36.440 ,0,0,,0,1.,4.8,0.,4.8,,0,0.,4.8,0.,4.8
1986-01-26 00:04:41.240 ,0,0,,0,1.,4.8,0.,4.8,,0,0.,4.8,0.,4.8
1986-01-26 00:04:46.040 ,0,0,,0,1.,4.8,0.,4.8,,0,0.,4.8,0.,4.8
1986-01-26 00:04:50.840 ,1,0,,0,0.,4.8,0.,4.8,,0,0.,4.8,0.,4.8
1986-01-26 00:04:55.640 ,1,0,,0,2.,4.8,0.,4.8,,0,0.,4.8,0.,4.8
1986-01-26 00:05:00.440 ,1,0,,0,1.,4.8,0.,4.8,,0,0.,4.8,0.,4.8
1986-01-26 00:05:05.240 ,1,0,,0,0.,4.8,0.,4.8,,0,0.,4.8,0.,4.8
1986-01-26 00:05:10.040 ,1,0,,0,0.,4.8,0.,4.8,,0,0.,4.8,0.,4.8
1986-01-26 00:05:14.840 ,1,0,,0,0.,4.8,0.,4.8,,0,0.,4.8,0.,4.8
1986-01-26 00:05:19.640 ,1,0,,0,0.,4.8,0.,4.8,,0,0.,4.8,0.,4.8
1986-01-26 00:05:24.440 ,1,0,,0,0.,4.8,0.,4.8,,0,0.,4.8,0.,4.8
1986-01-26 00:05:29.240 ,1,0,,0,3.,4.8,0.,4.8,,0,0.,4.8,0.,4.8
1986-01-26 00:05:34.040 ,1,0,,0,1.,4.8,0.,4.8,,0,0.,4.8,0.,4.8
1986-01-26 00:05:38.840 ,2,0,,0,0.,4.8,0.,4.8,,0,0.,4.8,0.,4.8
1986-01-26 00:05:43.640 ,2,0,,0,0.,4.8,0.,4.8,,0,0.,4.8,0.,4.8
1986-01-26 00:05:48.440 ,2,0,,0,0.,4.8,0.,4.8,,0,0.,4.8,0.,4.8
1986-01-26 00:05:53.240 ,2,0,,0,0.,4.8,0.,4.8,,0,0.,4.8,0.,4.8
1986-01-26 00:05:58.040 ,2,0,,0,1.,4.8,0.,4.8,,0,0.,4.8,0.,4.8
1986-01-26 00:06:02.840 ,2,0,,0,0.,4.8,0.,4.8,,0,0.,4.8,0.,4.8
1986-01-26 00:06:07.640 ,2,0,,0,0.,4.8,0.,4.8,,0,0.,4.8,0.,4.8
1986-01-26 00:06:12.440 ,2,0,,0,0.,4.8,0.,4.8,,0,0.,4.8,0.,4.8
1986-01-26 00:06:17.240 ,2,0,,0,0.,4.8,0.,4.8,,0,0.,4.8,0.,4.8
1986-01-26 00:06:22.040 ,2,0,,0,1.,4.8,0.,4.8,,0,0.,4.8,0.,4.8
1986-01-26 00:06:26.840 ,3,0,,0,0.,4.8,0.,4.8,,0,0.,4.8,0.,4.8
1986-01-26 00:06:31.640 ,3,0,,0,0.,4.8,0.,4.8,,0,0.,4.8,0.,4.8
1986-01-26 00:06:36.440 ,3,0,,0,0.,4.8,0.,4.8,,0,0.,4.8,0.,4.8
1986-01-26 00:06:41.240 ,3,0,,0,0.,4.8,0.,4.8,,0,0.,4.8,0.,4.8
1986-01-26 00:06:46.040 ,3,0,,0,0.,4.8,0.,4.8,,0,0.,4.8,0.,4.8
1986-01-26 00:06:50.840 ,3,0,,0,0.,4.8,0.,4.8,,0,0.,4.8,0.,4.8
1986-01-26 00:06:55.640 ,3,0,,0,0.,4.8,0.,4.8,,0,0.,4.8,0.,4.8
1986-01-26 00:07:00.440 ,3,0,,0,0.,4.8,0.,4.8,,0,0.,4.8,0.,4.8
1986-01-26 00:07:05.240 ,3,0,,0,1.,4.8,0.,4.8,,0,0.,4.8,0.,4.8
1986-01-26 00:07:10.040 ,3,0,,0,0.,4.8,0.,4.8,,0,0.,4.8,0.,4.8
1986-01-26 00:07:14.840 ,4,0,,0,0.,4.8,0.,4.8,,0,0.,4.8,0.,4.8
1986-01-26 00:07:19.640 ,4,0,,0,0.,4.8,0.,4.8,,0,0.,4.8,0.,4.8
1986-01-26 00:07:24.440 ,4,0,,0,1.,4.8,0.,4.8,,0,0.,4.8,0.,4.8
1986-01-26 00:07:29.240 ,4,0,,0,0.,4.8,0.,4.8,,0,0.,4.8,0.,4.8
1986-01-26 00:07:34.040 ,4,0,,0,0.,4.8,0.,4.8,,0,0.,4.8,0.,4.8
1986-01-26 00:07:38.840 ,4,0,,0,0.,4.8,0.,4.8,,0,0.,4.8,0.,4.8
1986-01-26 00:07:43.640 ,4,0,,0,0.,4.8,0.,4.8,,0,0.,4.8,0.,4.8
1986-01-26 00:07:48.440 ,4,0,,0,1.,4.8,0.,4.8,,0,0.,4.8,0.,4.8
1986-01-26 00:07:53.240 ,4,0,,0,0.,4.8,0.,4.8,,0,0.,4.8,0.,4.8
1986-01-26 00:07:58.040 ,4,0,,0,0.,4.8,0.,4.8,,0,0.,4.8,0.,4.8
1986-01-26 00:08:02.840 ,5,0,,0,0.,4.8,0.,4.8,,0,0.,4.8,0.,4.8
1986-01-26 00:08:07.640 ,5,0,,0,1.,4.8,0.,4.8,,0,0.,4.8,0.,4.8
1986-01-26 00:08:12.440 ,5,0,,0,1.,4.8,0.,4.8,,0,0.,4.8,0.,4.8
1986-01-26 00:08:17.240 ,5,0,,0,0.,4.8,0.,4.8,,0,0.,4.8,0.,4.8
1986-01-26 00:08:22.040 ,5,0,,0,0.,4.8,0.,4.8,,0,0.,4.8,0.,4.8
1986-01-26 00:08:26.840 ,5,0,,0,0.,4.8,0.,4.8,,0,0.,4.8,0.,4.8
1986-01-26 00:08:31.640 ,5,0,,0,0.,4.8,0.,4.8,,0,0.,4.8,0.,4.8
1986-01-26 00:08:36.440 ,5,0,,0,0.,4.8,0.,4.8,,0,0.,4.8,0.,4.8
1986-01-26 00:08:41.240 ,5,0,,0,0.,4.8,0.,4.8,,0,0.,4.8,0.,4.8
1986-01-26 00:08:46.040 ,5,0,,0,0.,4.8,0.,4.8,,0,0.,4.8,0.,4.8
1986-01-26 00:08:50.840 ,6,0,,0,1.,4.8,0.,4.8,,0,0.,4.8,0.,4.8
1986-01-26 00:08:55.640 ,6,0,,0,1.,4.8,0.,4.8,,0,0.,4.8,0.,4.8
1986-01-26 00:09:00.440 ,6,0,,0,0.,4.8,0.,4.8,,0,0.,4.8,0.,4.8
1986-01-26 00:09:05.240 ,6,0,,0,0.,4.8,0.,4.8,,0,0.,4.8,0.,4.8
1986-01-26 00:09:10.040 ,6,0,,0,0.,4.8,0.,4.8,,0,0.,4.8,0.,4.8
1986-01-26 00:09:14.840 ,6,0,,0,0.,4.8,0.,4.8,,0,0.,4.8,0.,4.8
1986-01-26 00:09:19.640 ,6,0,,0,1.,4.8,0.,4.8,,0,0.,4.8,0.,4.8
1986-01-26 00:09:24.440 ,6,0,,0,0.,4.8,0.,4.8,,0,0.,4.8,0.,4.8
1986-01-26 00:09:29.240 ,6,0,,0,0.,4.8,0.,4.8,,0,0.,4.8,0.,4.8
1986-01-26 00:09:34.040 ,6,0,,0,1.,4.8,0.,4.8,,0,0.,4.8,0.,4.8
1986-01-26 00:09:38.840 ,7,0,,0,1.,4.8,0.,4.8,,0,0.,4.8,0.,4.8
1986-01-26 00:09:43.640 ,7,0,,0,1.,4.8,0.,4.8,,0,0.,4.8,0.,4.8
1986-01-26 00:09:48.440 ,7,0,,0,2.,4.8,0.,4.8,,0,0.,4.8,0.,4.8
1986-01-26 00:09:53.240 ,7,0,,0,6.,4.8,0.,4.8,,0,0.,4.8,0.,4.8
1986-01-26 00:09:58.040 ,7,0,,0,4.,4.8,0.,4.8,,0,0.,4.8,0.,4.8
1986-01-26 00:10:02.840 ,7,0,,0,7.,4.8,0.,4.8,,0,0.,4.8,0.,4.8
1986-01-26 00:10:07.640 ,7,0,,0,4.,4.8,0.,4.8,,0,0.,4.8,0.,4.8
1986-01-26 00:10:12.440 ,7,0,,0,3.,4.8,0.,4.8,,0,0.,4.8,0.,4.8
1986-01-26 00:10:17.240 ,7,0,,0,0.,4.8,0.,4.8,,0,0.,4.8,0.,4.8
1986-01-26 00:10:22.040 ,7,0,,0,1.,4.8,0.,4.8,,0,0.,4.8,0.,4.8
1986-01-26 00:10:26.840 ,7,0,,0,0.,4.8,0.,4.8,,0,0.,4.8,0.,4.8
1986-01-26 00:10:31.640 ,7,0,,0,0.,4.8,0.,4.8,,0,0.,4.8,0.,4.8
1986-01-26 00:10:36.440 ,7,0,,0,3.,4.8,0.,4.8,,0,0.,4.8,0.,4.8
1986-01-26 00:10:41.240 ,7,0,,0,7.,4.8,0.,4.8,,0,0.,4.8,0.,4.8
1986-01-26 00:10:46.040 ,7,0,,0,6.,4.8,0.,4.8,,0,0.,4.8,0.,4.8
1986-01-26 00:10:50.840 ,7,0,,0,4.,4.8,0.,4.8,,0,0.,4.8,0.,4.8
1986-01-26 00:10:55.640 ,7,0,,0,5.,4.8,0.,4.8,,0,0.,4.8,0.,4.8
1986-01-26 00:11:00.440 ,7,0,,0,3.,4.8,0.,4.8,,0,0.,4.8,0.,4.8
1986-01-26 00:11:05.240 ,7,0,,0,1.,4.8,0.,4.8,,0,0.,4.8,0.,4.8
1986-01-26 00:11:10.040 ,7,0,,0,1.,4.8,0.,4.8,,0,0.,4.8,0.,4.8
1986-01-26 00:11:14.840 ,6,0,,0,1.,4.8,0.,4.8,,0,0.,4.8,0.,4.8
1986-01-26 00:11:19.640 ,6,0,,0,0.,4.8,0.,4.8,,0,0.,4.8,0.,4.8
1986-01-26 00:11:24.440 ,6,0,,0,0.,4.8,0.,4.8,,0,0.,4.8,0.,4.8
1986-01-26 00:11:29.240 ,6,0,,0,0.,4.8,0.,4.8,,0,0.,4.8,0.,4.8
1986-01-26 00:11:34.040 ,6,0,,0,0.,4.8,0.,4.8,,0,0.,4.8,0.,4.8
1986-01-26 00:11:38.840 ,6,0,,0,0.,4.8,0.,4.8,,0,0.,4.8,0.,4.8
1986-01-26 00:11:43.640 ,6,0,,0,0.,4.8,0.,4.8,,0,0.,4.8,0.,4.8
1986-01-26 00:11:48.440 ,6,0,,0,0.,4.8,0.,4.8,,0,0.,4.8,0.,4.8
1986-01-26 00:11:53.240 ,6,0,,0,0.,4.8,0.,4.8,,0,0.,4.8,0.,4.8
1986-01-26 00:11:58.040 ,6,0,,0,0.,4.8,0.,4.8,,0,0.,4.8,0.,4.8
1986-01-26 00:12:02.840 ,5,0,,0,1.,4.8,0.,4.8,,0,0.,4.8,0.,4.8
1986-01-26 00:12:07.640 ,5,0,,0,1.,4.8,0.,4.8,,0,0.,4.8,0.,4.8
1986-01-26 00:12:12.440 ,5,0,,0,1.,4.8,0.,4.8,,0,0.,4.8,0.,4.8
1986-01-26 00:12:17.240 ,5,0,,0,0.,4.8,0.,4.8,,0,0.,4.8,0.,4.8
1986-01-26 00:12:22.040 ,5,0,,0,0.,4.8,0.,4.8,,0,0.,4.8,0.,4.8
1986-01-26 00:12:26.840 ,5,0,,0,1.,4.8,0.,4.8,,0,0.,4.8,0.,4.8
1986-01-26 00:12:31.640 ,5,0,,0,0.,4.8,0.,4.8,,0,0.,4.8,0.,4.8
1986-01-26 00:12:36.440 ,5,0,,0,0.,4.8,0.,4.8,,0,0.,4.8,0.,4.8
1986-01-26 00:12:41.240 ,5,0,,0,0.,4.8,0.,4.8,,0,0.,4.8,0.,4.8
1986-01-26 00:12:46.040 ,5,0,,0,0.,4.8,0.,4.8,,0,0.,4.8,0.,4.8
1986-01-26 00:12:50.840 ,4,0,,0,1.,4.8,0.,4.8,,0,0.,4.8,0.,4.8
1986-01-26 00:12:55.640 ,4,0,,0,1.,4.8,0.,4.8,,0,0.,4.8,0.,4.8
1986-01-26 00:13:00.440 ,4,0,,0,0.,4.8,0.,4.8,,0,0.,4.8,0.,4.8
1986-01-26 00:13:05.240 ,4,0,,0,0.,4.8,0.,4.8,,0,0.,4.8,0.,4.8
1986-01-26 00:13:10.040 ,4,0,,0,2.,4.8,0.,4.8,,0,0.,4.8,0.,4.8
1986-01-26 00:13:14.840 ,4,0,,0,1.,4.8,0.,4.8,,0,0.,4.8,0.,4.8
1986-01-26 00:13:19.640 ,4,0,,0,0.,4.8,0.,4.8,,0,0.,4.8,0.,4.8
1986-01-26 00:13:24.440 ,4,0,,0,0.,4.8,0.,4.8,,0,0.,4.8,0.,4.8
1986-01-26 00:13:29.240 ,4,0,,0,0.,4.8,0.,4.8,,0,0.,4.8,0.,4.8
1986-01-26 00:13:34.040 ,4,0,,0,0.,4.8,0.,4.8,,0,0.,4.8,0.,4.8
1986-01-26 00:13:38.840 ,3,0,,0,0.,4.8,0.,4.8,,0,0.,4.8,0.,4.8
1986-01-26 00:13:43.640 ,3,0,,0,1.,4.8,0.,4.8,,0,0.,4.8,0.,4.8
1986-01-26 00:13:48.440 ,3,0,,0,0.,4.8,0.,4.8,,0,0.,4.8,0.,4.8
1986-01-26 00:13:53.240 ,3,0,,0,0.,4.8,0.,4.8,,0,0.,4.8,0.,4.8
1986-01-26 00:13:58.040 ,3,0,,0,1.,4.8,0.,4.8,,0,0.,4.8,0.,4.8
1986-01-26 00:14:02.840 ,3,0,,0,0.,4.8,0.,4.8,,0,0.,4.8,0.,4.8
1986-01-26 00:14:07.640 ,3,0,,0,0.,4.8,0.,4.8,,0,0.,4.8,0.,4.8
1986-01-26 00:14:12.440 ,3,0,,0,0.,4.8,0.,4.8,,0,0.,4.8,0.,4.8
1986-01-26 00:14:17.240 ,3,0,,0,1.,4.8,0.,4.8,,0,0.,4.8,0.,4.8
1986-01-26 00:14:22.040 ,3,0,,0,0.,4.8,0.,4.8,,0,0.,4.8,0.,4.8
1986-01-26 00:14:26.840 ,2,0,,0,1.,4.8,0.,4.8,,0,0.,4.8,0.,4.8
1986-01-26 00:14:31.640 ,2,0,,0,0.,4.8,0.,4.8,,0,0.,4.8,0.,4.8
1986-01-26 00:14:36.440 ,2,0,,0,0.,4.8,0.,4.8,,0,0.,4.8,0.,4.8
1986-01-26 00:14:41.240 ,2,0,,0,0.,4.8,0.,4.8,,0,0.,4.8,0.,4.8
1986-01-26 00:14:46.040 ,2,0,,0,0.,4.8,0.,4.8,,0,0.,4.8,0.,4.8
1986-01-26 00:14:50.840 ,2,0,,0,1.,4.8,0.,4.8,,0,0.,4.8,0.,4.8
1986-01-26 00:14:55.640 ,2,0,,0,0.,4.8,0.,4.8,,0,0.,4.8,0.,4.8
1986-01-26 00:15:00.440 ,2,0,,0,0.,4.8,0.,4.8,,0,0.,4.8,0.,4.8
1986-01-26 00:15:05.240 ,2,0,,0,0.,4.8,0.,4.8,,0,0.,4.8,0.,4.8
1986-01-26 00:15:10.040 ,2,0,,0,0.,4.8,0.,4.8,,0,0.,4.8,0.,4.8
1986-01-26 00:15:14.840 ,1,0,,0,0.,4.8,0.,4.8,,0,0.,4.8,0.,4.8
1986-01-26 00:15:19.640 ,1,0,,0,2.,4.8,0.,4.8,,0,0.,4.8,0.,4.8
1986-01-26 00:15:24.440 ,1,0,,0,0.,4.8,0.,4.8,,0,0.,4.8,0.,4.8
1986-01-26 00:15:29.240 ,1,0,,0,0.,4.8,0.,4.8,,0,0.,4.8,0.,4.8
1986-01-26 00:15:34.040 ,1,0,,0,0.,4.8,0.,4.8,,0,0.,4.8,0.,4.8
1986-01-26 00:15:38.840 ,1,0,,0,0.,4.8,0.,4.8,,0,0.,4.8,0.,4.8
1986-01-26 00:15:43.640 ,1,0,,0,0.,4.8,0.,4.8,,0,0.,4.8,0.,4.8
1986-01-26 00:15:48.440 ,1,0,,0,1.,4.8,0.,4.8,,0,0.,4.8,0.,4.8
1986-01-26 00:15:53.240 ,1,0,,0,0.,4.8,0.,4.8,,0,0.,4.8,0.,4.8
1986-01-26 00:15:58.040 ,1,0,,0,0.,4.8,0.,4.8,,0,0.,4.8,0.,4.8
1986-01-26 00:16:02.840 ,0,0,,0,0.,4.8,0.,4.8,,0,0.,4.8,0.,4.8
1986-01-26 00:16:07.640 ,0,0,,0,0.,4.8,0.,4.8,,0,0.,4.8,0.,4.8
1986-01-26 00:16:12.440 ,0,0,,0,0.,4.8,0.,4.8,,0,0.,4.8,0.,4.8
1986-01-26 00:16:17.240 ,0,0,,0,0.,4.8,0.,4.8,,0,0.,4.8,0.,4.8
1986-01-26 00:16:22.040 ,0,0,,0,0.,4.8,0.,4.8,,0,0.,4.8,0.,4.8
1986-01-26 00:16:26.840 ,0,0,,0,0.,4.8,0.,4.8,,0,0.,4.8,0.,4.8
1986-01-26 00:16:31.640 ,0,0,,0,0.,4.8,0.,4.8,,0,0.,4.8,0.,4.8
1986-01-26 00:16:36.440 ,0,0,,0,0.,4.8,0.,4.8,,0,0.,4.8,0.,4.8
1986-01-26 00:16:41.240 ,0,0,,0,0.,4.8,0.,4.8,,0,0.,4.8,0.,4.8
1986-01-26 00:16:46.040 ,0,0,,0,0.,4.8,0.,4.8,,0,0.,4.8,0.,4.8
1986-01-26 00:16:50.840 ,0,0,,0,0.,4.8,0.,4.8,,0,0.,4.8,0.,4.8
1986-01-26 00:16:55.640 ,0,0,,0,0.,4.8,0.,4.8,,0,0.,4.8,0.,4.8
1986-01-26 00:17:00.440 ,0,0,,0,1.,4.8,0.,4.8,,0,0.,4.8,0.,4.8
1986-01-26 00:17:05.240 ,0,0,,0,0.,4.8,0.,4.8,,0,0.,4.8,0.,4.8
1986-01-26 00:17:10.040 ,0,0,,0,0.,4.8,0.,4.8,,0,0.,4.8,0.,4.8
1986-01-26 00:17:14.840 ,0,0,,0,0.,4.8,0.,4.8,,0,0.,4.8,0.,4.8
1986-01-26 00:17:19.640 ,0,0,,0,0.,4.8,0.,4.8,,0,0.,4.8,0.,4.8
1986-01-26 00:17:24.440 ,0,0,,0,0.,4.8,0.,4.8,,0,0.,4.8,0.,4.8
1986-01-26 00:17:29.240 ,0,0,,0,0.,4.8,0.,4.8,,0,0.,4.8,0.,4.8
1986-01-26 00:17:34.040 ,0,0,,0,0.,4.8,0.,4.8,,0,0.,4.8,0.,4.8
1986-01-26 00:17:38.840 ,1,0,,0,0.,4.8,0.,4.8,,0,0.,4.8,0.,4.8
1986-01-26 00:17:43.640 ,1,0,,0,0.,4.8,0.,4.8,,0,0.,4.8,0.,4.8
1986-01-26 00:17:48.440 ,1,0,,0,2.,4.8,0.,4.8,,0,0.,4.8,0.,4.8
1986-01-26 00:17:53.240 ,1,0,,0,0.,4.8,0.,4.8,,0,0.,4.8,0.,4.8
1986-01-26 00:17:58.040 ,1,0,,0,0.,4.8,0.,4.8,,0,0.,4.8,0.,4.8
1986-01-26 00:18:02.840 ,1,0,,0,0.,4.8,0.,4.8,,0,0.,4.8,0.,4.8
1986-01-26 00:18:07.640 ,1,0,,0,0.,4.8,0.,4.8,,0,0.,4.8,0.,4.8
1986-01-26 00:18:12.440 ,1,0,,0,0.,4.8,0.,4.8,,0,0.,4.8,0.,4.8
1986-01-26 00:18:17.240 ,1,0,,0,1.,4.8,0.,4.8,,0,0.,4.8,0.,4.8
1986-01-26 00:18:22.040 ,1,0,,0,0.,4.8,0.,4.8,,0,0.,4.8,0.,4.8
1986-01-26 00:18:26.840 ,2,0,,0,1.,4.8,0.,4.8,,0,0.,4.8,0.,4.8
1986-01-26 00:18:31.640 ,2,0,,0,1.,4.8,0.,4.8,,0,0.,4.8,0.,4.8
1986-01-26 00:18:36.440 ,2,0,,0,0.,4.8,0.,4.8,,0,0.,4.8,0.,4.8
1986-01-26 00:18:41.240 ,2,0,,0,0.,4.8,0.,4.8,,0,0.,4.8,0.,4.8
1986-01-26 00:18:46.040 ,2,0,,0,0.,4.8,0.,4.8,,0,0.,4.8,0.,4.8
1986-01-26 00:18:50.840 ,2,0,,0,0.,4.8,0.,4.8,,0,0.,4.8,0.,4.8
1986-01-26 00:18:55.640 ,2,0,,0,0.,4.8,0.,4.8,,0,0.,4.8,0.,4.8
1986-01-26 00:19:00.440 ,2,0,,0,0.,4.8,0.,4.8,,0,0.,4.8,0.,4.8
1986-01-26 00:19:05.240 ,2,0,,0,2.,4.8,0.,4.8,,0,0.,4.8,0.,4.8
1986-01-26 00:19:10.040 ,2,0,,0,1.,4.8,0.,4.8,,0,0.,4.8,0.,4.8
1986-01-26 00:19:14.840 ,3,0,,0,2.,4.8,0.,4.8,,0,0.,4.8,0.,4.8
1986-01-26 00:19:19.640 ,3,0,,0,0.,4.8,0.,4.8,,0,0.,4.8,0.,4.8
1986-01-26 00:19:24.440 ,3,0,,0,1.,4.8,0.,4.8,,0,0.,4.8,0.,4.8
1986-01-26 00:19:29.240 ,3,0,,0,0.,4.8,0.,4.8,,0,0.,4.8,0.,4.8
1986-01-26 00:19:34.040 ,3,0,,0,0.,4.8,0.,4.8,,0,0.,4.8,0.,4.8
1986-01-26 00:19:38.840 ,3,0,,0,0.,4.8,0.,4.8,,0,0.,4.8,0.,4.8
1986-01-26 00:19:43.640 ,3,0,,0,0.,4.8,0.,4.8,,0,0.,4.8,0.,4.8
1986-01-26 00:19:48.440 ,3,0,,0,0.,4.8,0.,4.8,,0,0.,4.8,0.,4.8
1986-01-26 00:19:53.240 ,3,0,,0,2.,4.8,0.,4.8,,0,0.,4.8,0.,4.8
1986-01-26 00:19:58.040 ,3,0,,0,1.,4.8,0.,4.8,,0,0.,4.8,0.,4.8
1986-01-26 00:20:02.840 ,4,0,,0,0.,4.8,0.,4.8,,0,0.,4.8,0.,4.8
1986-01-26 00:20:07.640 ,4,0,,0,1.,4.8,0.,4.8,,0,0.,4.8,0.,4.8
1986-01-26 00:20:12.440 ,4,0,,0,0.,4.8,0.,4.8,,0,0.,4.8,0.,4.8
1986-01-26 00:20:17.240 ,4,0,,0,0.,4.8,0.,4.8,,0,0.,4.8,0.,4.8
1986-01-26 00:20:22.040 ,4,0,,0,0.,4.8,0.,4.8,,0,0.,4.8,0.,4.8
1986-01-26 00:20:26.840 ,4,0,,0,1.,4.8,0.,4.8,,0,0.,4.8,0.,4.8
1986-01-26 00:20:31.640 ,4,0,,0,0.,4.8,0.,4.8,,0,0.,4.8,0.,4.8
1986-01-26 00:20:36.440 ,4,0,,0,0.,4.8,0.,4.8,,0,0.,4.8,0.,4.8
1986-01-26 00:20:41.240 ,4,0,,0,0.,4.8,0.,4.8,,0,0.,4.8,0.,4.8
1986-01-26 00:20:46.040 ,4,0,,0,0.,4.8,0.,4.8,,0,0.,4.8,0.,4.8
1986-01-26 00:20:50.840 ,5,0,,0,0.,4.8,0.,4.8,,0,0.,4.8,0.,4.8
1986-01-26 00:20:55.640 ,5,0,,0,1.,4.8,0.,4.8,,0,0.,4.8,0.,4.8
1986-01-26 00:21:00.440 ,5,0,,0,0.,4.8,0.,4.8,,0,0.,4.8,0.,4.8
1986-01-26 00:21:05.240 ,5,0,,0,0.,4.8,0.,4.8,,0,0.,4.8,0.,4.8
1986-01-26 00:21:10.040 ,5,0,,0,0.,4.8,0.,4.8,,0,0.,4.8,0.,4.8
1986-01-26 00:21:14.840 ,5,0,,0,0.,4.8,0.,4.8,,0,0.,4.8,0.,4.8
1986-01-26 00:21:19.640 ,5,0,,0,0.,4.8,0.,4.8,,0,0.,4.8,0.,4.8
1986-01-26 00:21:24.440 ,5,0,,0,0.,4.8,0.,4.8,,0,0.,4.8,0.,4.8
1986-01-26 00:21:29.240 ,5,0,,0,1.,4.8,0.,4.8,,0,0.,4.8,0.,4.8
1986-01-26 00:21:34.040 ,5,0,,0,1.,4.8,0.,4.8,,0,0.,4.8,0.,4.8
1986-01-26 00:21:38.840 ,6,0,,0,0.,4.8,0.,4.8,,0,0.,4.8,0.,4.8
1986-01-26 00:21:43.640 ,6,0,,0,0.,4.8,0.,4.8,,0,0.,4.8,0.,4.8
1986-01-26 00:21:48.440 ,6,0,,0,1.,4.8,0.,4.8,,0,0.,4.8,0.,4.8
1986-01-26 00:21:53.240 ,6,0,,0,0.,4.8,0.,4.8,,0,0.,4.8,0.,4.8
1986-01-26 00:21:58.040 ,6,0,,0,0.,4.8,0.,4.8,,0,0.,4.8,0.,4.8
1986-01-26 00:22:02.840 ,6,0,,0,0.,4.8,0.,4.8,,0,0.,4.8,0.,4.8
1986-01-26 00:22:07.640 ,6,0,,0,0.,4.8,0.,4.8,,0,0.,4.8,0.,4.8
1986-01-26 00:22:12.440 ,6,0,,0,0.,4.8,0.,4.8,,0,0.,4.8,0.,4.8
1986-01-26 00:22:17.240 ,6,0,,0,1.,4.8,0.,4.8,,0,0.,4.8,0.,4.8
1986-01-26 00:22:22.040 ,6,0,,0,1.,4.8,0.,4.8,,0,0.,4.8,0.,4.8
1986-01-26 00:22:26.840 ,7,0,,0,2.,4.8,0.,4.8,,0,0.,4.8,0.,4.8
1986-01-26 00:22:31.640 ,7,0,,0,1.,4.8,0.,4.8,,0,0.,4.8,0.,4.8
1986-01-26 00:22:36.440 ,7,0,,0,1.,4.8,0.,4.8,,0,0.,4.8,0.,4.8
1986-01-26 00:22:41.240 ,7,0,,0,7.,4.8,0.,4.8,,0,0.,4.8,0.,4.8
1986-01-26 00:22:46.040 ,7,0,,0,11.,4.8,0.,4.8,,0,0.,4.8,0.,4.8
1986-01-26 00:22:50.840 ,7,0,,0,6.,4.8,0.,4.8,,0,0.,4.8,0.,4.8
1986-01-26 00:22:55.640 ,7,0,,0,8.,4.8,0.,4.8,,0,0.,4.8,0.,4.8
1986-01-26 00:23:00.440 ,7,0,,0,2.,4.8,0.,4.8,,0,0.,4.8,0.,4.8
1986-01-26 00:23:05.240 ,7,0,,0,0.,4.8,0.,4.8,,0,0.,4.8,0.,4.8
1986-01-26 00:23:10.040 ,7,0,,0,0.,4.8,0.,4.8,,0,0.,4.8,0.,4.8
1986-01-26 00:23:14.840 ,7,0,,0,0.,4.8,0.,4.8,,0,0.,4.8,0.,4.8
1986-01-26 00:23:19.640 ,7,0,,0,1.,4.8,0.,4.8,,0,0.,4.8,0.,4.8
1986-01-26 00:23:24.440 ,7,0,,0,2.,4.8,0.,4.8,,0,0.,4.8,0.,4.8
1986-01-26 00:23:29.240 ,7,0,,0,7.,4.8,0.,4.8,,0,0.,4.8,0.,4.8
1986-01-26 00:23:34.040 ,7,0,,0,3.,4.8,0.,4.8,,0,0.,4.8,0.,4.8
1986-01-26 00:23:38.840 ,7,0,,0,7.,4.8,0.,4.8,,0,0.,4.8,0.,4.8
1986-01-26 00:23:43.640 ,7,0,,0,7.,4.8,0.,4.8,,0,0.,4.8,0.,4.8
1986-01-26 00:23:48.440 ,7,0,,0,3.,4.8,0.,4.8,,0,0.,4.8,0.,4.8
1986-01-26 00:23:53.240 ,7,0,,0,0.,4.8,0.,4.8,,0,0.,4.8,0.,4.8
1986-01-26 00:23:58.040 ,7,0,,0,0.,4.8,0.,4.8,,0,0.,4.8,0.,4.8
1986-01-26 00:24:02.840 ,6,0,,0,0.,4.8,0.,4.8,,0,0.,4.8,0.,4.8
1986-01-26 00:24:07.640 ,6,0,,0,0.,4.8,0.,4.8,,0,0.,4.8,0.,4.8
1986-01-26 00:24:12.440 ,6,0,,0,0.,4.8,0.,4.8,,0,0.,4.8,0.,4.8
1986-01-26 00:24:17.240 ,6,0,,0,0.,4.8,0.,4.8,,0,0.,4.8,0.,4.8
1986-01-26 00:24:22.040 ,6,0,,0,0.,4.8,0.,4.8,,0,0.,4.8,0.,4.8
1986-01-26 00:24:26.840 ,6,0,,0,0.,4.8,0.,4.8,,0,0.,4.8,0.,4.8
1986-01-26 00:24:31.640 ,6,0,,0,0.,4.8,0.,4.8,,0,0.,4.8,0.,4.8
1986-01-26 00:24:36.440 ,6,0,,0,0.,4.8,0.,4.8,,0,0.,4.8,0.,4.8
1986-01-26 00:24:41.240 ,6,0,,0,0.,4.8,0.,4.8,,0,0.,4.8,0.,4.8
1986-01-26 00:24:46.040 ,6,0,,0,3.,4.8,0.,4.8,,0,0.,4.8,0.,4.8
1986-01-26 00:24:50.840 ,5,0,,0,3.,4.8,0.,4.8,,0,0.,4.8,0.,4.8
1986-01-26 00:24:55.640 ,5,0,,0,2.,4.8,0.,4.8,,0,0.,4.8,0.,4.8
1986-01-26 00:25:00.440 ,5,0,,0,0.,4.8,0.,4.8,,0,0.,4.8,0.,4.8
1986-01-26 00:25:05.240 ,5,0,,0,0.,4.8,0.,4.8,,0,0.,4.8,0.,4.8
1986-01-26 00:25:10.040 ,5,0,,0,0.,4.8,0.,4.8,,0,0.,4.8,0.,4.8
1986-01-26 00:25:14.840 ,5,0,,0,0.,4.8,0.,4.8,,0,0.,4.8,0.,4.8
1986-01-26 00:25:19.640 ,5,0,,0,1.,4.8,0.,4.8,,0,0.,4.8,0.,4.8
1986-01-26 00:25:24.440 ,5,0,,0,0.,4.8,0.,4.8,,0,0.,4.8,0.,4.8
1986-01-26 00:25:29.240 ,5,0,,0,0.,4.8,0.,4.8,,0,0.,4.8,0.,4.8
1986-01-26 00:25:34.040 ,5,0,,0,0.,4.8,0.,4.8,,0,0.,4.8,0.,4.8
1986-01-26 00:25:38.840 ,4,0,,0,1.,4.8,0.,4.8,,0,0.,4.8,0.,4.8
1986-01-26 00:25:43.640 ,4,0,,0,1.,4.8,0.,4.8,,0,0.,4.8,0.,4.8
1986-01-26 00:25:48.440 ,4,0,,0,0.,4.8,0.,4.8,,0,0.,4.8,0.,4.8
1986-01-26 00:25:53.240 ,4,0,,0,0.,4.8,0.,4.8,,0,0.,4.8,0.,4.8
1986-01-26 00:25:58.040 ,4,0,,0,0.,4.8,0.,4.8,,0,0.,4.8,0.,4.8
1986-01-26 00:26:02.840 ,4,0,,0,1.,4.8,0.,4.8,,0,0.,4.8,0.,4.8
1986-01-26 00:26:07.640 ,4,0,,0,0.,4.8,0.,4.8,,0,0.,4.8,0.,4.8
1986-01-26 00:26:12.440 ,4,0,,0,0.,4.8,0.,4.8,,0,0.,4.8,0.,4.8
1986-01-26 00:26:17.240 ,4,0,,0,0.,4.8,0.,4.8,,0,0.,4.8,0.,4.8
1986-01-26 00:26:22.040 ,4,0,,0,0.,4.8,0.,4.8,,0,0.,4.8,0.,4.8
1986-01-26 00:26:26.840 ,3,0,,0,0.,4.8,0.,4.8,,0,0.,4.8,0.,4.8
1986-01-26 00:26:31.640 ,3,0,,0,1.,4.8,0.,4.8,,0,0.,4.8,0.,4.8
1986-01-26 00:26:36.440 ,3,0,,0,0.,4.8,0.,4.8,,0,0.,4.8,0.,4.8
1986-01-26 00:26:41.240 ,3,0,,0,0.,4.8,0.,4.8,,0,0.,4.8,0.,4.8
1986-01-26 00:26:46.040 ,3,0,,0,0.,4.8,0.,4.8,,0,0.,4.8,0.,4.8
1986-01-26 00:26:50.840 ,3,0,,0,0.,4.8,0.,4.8,,0,0.,4.8,0.,4.8
1986-01-26 00:26:55.640 ,3,0,,0,0.,4.8,0.,4.8,,0,0.,4.8,0.,4.8
1986-01-26 00:27:00.440 ,3,0,,0,0.,4.8,0.,4.8,,0,0.,4.8,0.,4.8
1986-01-26 00:27:05.240 ,3,0,,0,0.,4.8,0.,4.8,,0,0.,4.8,0.,4.8
1986-01-26 00:27:10.040 ,3,0,,0,1.,4.8,0.,4.8,,0,0.,4.8,0.,4.8
1986-01-26 00:27:14.840 ,2,0,,0,0.,4.8,0.,4.8,,0,0.,4.8,0.,4.8
1986-01-26 00:27:19.640 ,2,0,,0,0.,4.8,0.,4.8,,0,0.,4.8,0.,4.8
1986-01-26 00:27:24.440 ,2,0,,0,0.,4.8,0.,4.8,,0,0.,4.8,0.,4.8
1986-01-26 00:27:29.240 ,2,0,,0,0.,4.8,0.,4.8,,0,0.,4.8,0.,4.8
1986-01-26 00:27:34.040 ,2,0,,0,0.,4.8,0.,4.8,,0,0.,4.8,0.,4.8
1986-01-26 00:27:38.840 ,2,0,,0,1.,4.8,0.,4.8,,0,0.,4.8,0.,4.8
1986-01-26 00:27:43.640 ,2,0,,0,0.,4.8,0.,4.8,,0,0.,4.8,0.,4.8
1986-01-26 00:27:48.440 ,2,0,,0,0.,4.8,0.,4.8,,0,0.,4.8,0.,4.8
1986-01-26 00:27:53.240 ,2,0,,0,2.,4.8,0.,4.8,,0,0.,4.8,0.,4.8
1986-01-26 00:27:58.040 ,2,0,,0,0.,4.8,0.,4.8,,0,0.,4.8,0.,4.8
1986-01-26 00:28:02.840 ,1,0,,0,1.,4.8,0.,4.8,,0,0.,4.8,0.,4.8
1986-01-26 00:28:07.640 ,1,0,,0,2.,4.8,0.,4.8,,0,0.,4.8,0.,4.8
1986-01-26 00:28:12.440 ,1,0,,0,0.,4.8,0.,4.8,,0,0.,4.8,0.,4.8
1986-01-26 00:28:17.240 ,1,0,,0,0.,4.8,0.,4.8,,0,0.,4.8,0.,4.8
1986-01-26 00:28:22.040 ,1,0,,0,0.,4.8,0.,4.8,,0,0.,4.8,0.,4.8
1986-01-26 00:28:26.840 ,1,0,,0,0.,4.8,0.,4.8,,0,0.,4.8,0.,4.8
1986-01-26 00:28:31.640 ,1,0,,0,0.,4.8,0.,4.8,,0,0.,4.8,0.,4.8
1986-01-26 00:28:36.440 ,1,0,,0,0.,4.8,0.,4.8,,0,0.,4.8,0.,4.8
1986-01-26 00:28:41.240 ,1,0,,0,1.,4.8,0.,4.8,,0,0.,4.8,0.,4.8
1986-01-26 00:28:46.040 ,1,0,,0,1.,4.8,0.,4.8,,0,0.,4.8,0.,4.8
1986-01-26 00:28:50.840 ,0,0,,0,0.,4.8,0.,4.8,,0,0.,4.8,0.,4.8
1986-01-26 00:28:55.640 ,0,0,,0,2.,4.8,0.,4.8,,0,0.,4.8,0.,4.8
1986-01-26 00:29:00.440 ,0,0,,0,1.,4.8,0.,4.8,,0,0.,4.8,0.,4.8
1986-01-26 00:29:05.240 ,0,0,,0,0.,4.8,0.,4.8,,0,0.,4.8,0.,4.8
1986-01-26 00:29:10.040 ,0,0,,0,0.,4.8,0.,4.8,,0,0.,4.8,0.,4.8
1986-01-26 00:29:14.840 ,0,0,,0,0.,4.8,0.,4.8,,0,0.,4.8,0.,4.8
1986-01-26 00:29:19.640 ,0,0,,0,0.,4.8,0.,4.8,,0,0.,4.8,0.,4.8
1986-01-26 00:29:24.440 ,0,0,,0,0.,4.8,0.,4.8,,0,0.,4.8,0.,4.8
1986-01-26 00:29:29.240 ,0,0,,0,0.,4.8,0.,4.8,,0,0.,4.8,0.,4.8
1986-01-26 00:29:34.040 ,0,0,,0,0.,4.8,0.,4.8,,0,0.,4.8,0.,4.8
1986-01-26 00:29:38.840 ,0,0,,0,0.,4.8,0.,4.8,,0,0.,4.8,0.,4.8
1986-01-26 00:29:43.640 ,0,0,,0,0.,4.8,0.,4.8,,0,0.,4.8,0.,4.8
1986-01-26 00:29:48.440 ,0,0,,0,0.,4.8,0.,4.8,,0,0.,4.8,0.,4.8
1986-01-26 00:29:53.240 ,0,0,,0,0.,4.8,0.,4.8,,0,0.,4.8,0.,4.8
1986-01-26 00:29:58.040 ,0,0,,0,0.,4.8,0.,4.8,,0,0.,4.8,0.,4.8
1986-01-26 00:30:02.840 ,0,0,,0,0.,4.8,0.,4.8,,0,0.,4.8,0.,4.8
1986-01-26 00:30:07.640 ,0,0,,0,0.,4.8,0.,4.8,,0,0.,4.8,0.,4.8
1986-01-26 00:30:12.440 ,0,0,,0,0.,4.8,0.,4.8,,0,0.,4.8,0.,4.8